map of BFN home
BFN - Airport
Location
City:  Bloemfontein, Free State, South Africa
Name:Bram Fischer International Airport
Old (Alt.):J.B.M. Hertzog
ICAO:FABL
IATA:BFN

Details
Type:Airport (Aerodrome, Airfield)
Use:Public/Civil, Military, International (customs port of entry)
Latitude:2905'34"S (-29.092721)
Longitude:2618'09"E (26.302444)
Datum:WGS 1984
Elevation:4458 ft (1359 m)
Variation:22.61W (WMM2015v2 magnetic declination)
-0.13 annual change
Runways:2
Longest:8396 × 151 ft (2559 × 46 m), paved

Time
Time Zone:UTC+2
Local Time:

Weather
METAR:FABL 041400Z 21011KT 170V240 9999 FEW035 28/07 Q1017 NOSIG
TAF:FABL 032200Z 0400/0424 21010KT CAVOK TX27/0413Z TN14/0403Z

Related Locations
Nearby:
Farthest:LUP: 11852 mi / 19074 km
Kalaupapa, Molokai, HI, US

Find:

   beyond  
but within

Other Information
Maps:
NOTAMs:
Links:
Sources:

  
  • flag of South Africa
  • flag of Free State
  

Sectional Chart

Flight Planning
at skyvector.com

Satellite Image

Google Maps Satellite view

 

Copyright © 2004-2019 Karl L. Swartz. All rights reserved.
The Great Circle Mapper name and logo are trademarks of the Great Circle Mapper.
All other trademarks mentioned herein belong to their respective owners.
Please see credits for attibutions and further copyright information.

  Follow gcmap on Facebook Follow gcmap on Twitter GCmap on LinkedIn

hCard Microformat

Geo Microformat